Probability
0 0 3 3 0 0 0 0 0 0 0 0 0 0 0 0 0 0 0 0 0 0 0 0 0 0 0 0 0 0 0 0 0 0 0 0 0 0
0 3 3 3 0 0 0 0 0 0 0 0 0 0 0 0 0 0 0 0 0 0 0 0 0 0 0 0 0 0 0 0 0 0 0 0 0 0
0 0 0 0 0 0 0 0 0 0 0 0 0 0 0 0 0 0 0 0 0 0 0 0 0 0 0 0 0 0 0 0 0 0 0 0 0 0
0 0 0 0 0 0 0 0 0 0 0 0 0 0 0 0 0 0 0 0 0 0 0 0 0 0 0 0 0 0 0 0 0 0 0 0 0 0
0 0 0 0 0 0 0 0 0 0 0 0 0 0 0 0 0 0 0 0 0 0 0 0 0 0 0 0 0 0 0 0 0 0 0 0 0 0
0 0 0 0 0 0 0 0 0 0 0 0 0 0 0 0 0 0 0 0 0 0 0 0 0 0 0 0 0 0 0 0 0 0 0 0 0 0
0 0 0 0 0 0 0 0 0 0 0 0 0 0 0 0 0 0 0 0 0 0 0 0 0 0 0 0 0 0 0 0 0 0 0 0 0 0
0 0 0 0 0 0 0 0 0 0 0 0 0 0 0 0 0 0 0 0 0 0 0 0 0 0 0 0 0 0 0 0 0 0 0 0 0 0
0 0 0 0 0 0 0 0 0 0 0 0 0 0 0 0 0 0 0 0 0 0 0 0 0 0 0 0 0 0 0 0 0 0 0 0 0 0
0 0 0 0 0 0 0 0 0 0 0 0 0 0 0 0 0 0 0 0 0 0 0 0 0 0 0 0 0 0 0 0 0 0 0 0 0 0
0 0 0 0 0 0 0 0 0 0 0 0 0 0 0 0 0 0 0 0 0 0 0 0 0 0 0 0 0 0 0 0 0 0 0 0 0 0
0 0 0 0 0 0 0 0 0 0 0 0 0 0 0 0 0 0 0 0 0 0 0 0 0 0 0 0 0 0 0 0 0 0 0 0 0 0
0 0 0 0 0 0 0 0 0 0 0 0 0 0 0 0 0 0 0 0 0 0 0 0 0 0 0 0 0 0 0 0 0 0 0 0 0 0
0 0 0 0 0 0 0 0 0 0 0 0 0 0 0 0 0 0 0 0 0 0 0 0 0 0 0 0 0 0 0 0 0 0 0 0 0 0
0 0 0 0 0 0 0 0 0 0 0 0 0 0 0 0 0 0 0 0 0 0 0 0 0 0 0 0 0 0 0 0 0 0 0 0 0 0
0 0 0 0 0 0 0 0 0 0 0 0 0 0 0 0 0 0 0 0 0 0 0 0 0 0 0 0 0 0 0 0 0 0 0 0 0 0
0 0 0 0 0 0 0 0 0 0 0 0 0 0 0 0 0 0 0 0 0 0 0 0 0 0 0 0 0 0 0 0 0 0 0 0 0 0
0 0 0 0 0 0 0 0 0 0 0 0 0 0 0 0 0 0 0 0 0 0 0 0 0 0 0 0 0 0 0 0 0 0 0 0 0 0
0 0 0 0 0 0 0 0 0 0 0 0 0 0 0 0 0 0 0 0 0 0 0 0 0 0 0 0 0 0 0 0 0 0 0 0 0 0
0 0 0 0 0 0 0 0 0 0 0 0 0 0 0 0 0 0 0 0 0 0 0 0 0 0 0 0 0 0 0 0 0 0 0 0 0 0
0 0 0 0 0 0 0 0 0 0 0 0 0 0 0 0 0 0 0 0 0 0 0 0 0 0 0 0 0 0 0 0 0 0 0 0 0 0
0 0 0 0 0 0 0 0 0 0 0 0 0 0 0 0 0 0 0 0 0 0 0 0 0 0 0 0 0 0 0 0 0 0 0 0 0 0
0 0 0 0 0 0 0 0 0 0 0 0 0 0 0 0 0 0 0 0 0 0 0 0 0 0 0 0 0 0 0 0 0 0 0 0 0 0
Height
5787 5788 5788 5790 5791 5792 5793 5795 5797 5798 5800 5801 5802 5803 5804 5804 5805 5806 5807 5807 5807 5807 5807 5806 5805 5805 5804 5802 5801 5799 5797 5795 5793 5791 5788 5786 5783 5781
5779 5780 5781 5782 5783 5784 5786 5787 5789 5791 5792 5793 5794 5796 5796 5797 5798 5798 5799 5800 5799 5799 5799 5798 5797 5796 5795 5794 5793 5791 5789 5787 5785 5782 5780 5777 5775 5772
5772 5772 5773 5774 5775 5776 5778 5780 5781 5783 5784 5786 5787 5788 5789 5790 5790 5791 5791 5792 5792 5791 5791 5790 5789 5788 5787 5786 5784 5783 5781 5779 5776 5774 5772 5769 5767 5764
5764 5765 5766 5767 5768 5769 5771 5772 5774 5775 5777 5778 5779 5780 5782 5782 5783 5784 5784 5784 5784 5784 5784 5783 5782 5781 5780 5778 5777 5775 5773 5771 5769 5767 5764 5762 5759 5757
5757 5758 5759 5760 5761 5762 5763 5765 5766 5768 5769 5770 5771 5773 5774 5775 5776 5777 5777 5777 5777 5777 5777 5776 5775 5774 5773 5771 5770 5768 5766 5764 5762 5760 5757 5755 5752 5750
5750 5751 5752 5753 5754 5755 5756 5757 5759 5760 5762 5763 5765 5766 5767 5769 5769 5770 5771 5771 5771 5771 5771 5770 5769 5768 5766 5764 5763 5761 5760 5757 5755 5753 5751 5748 5746 5743
5743 5744 5745 5746 5747 5748 5749 5751 5752 5753 5755 5756 5758 5759 5761 5762 5763 5764 5765 5765 5765 5765 5765 5764 5763 5762 5760 5758 5757 5755 5753 5751 5749 5747 5745 5743 5740 5738
5737 5737 5738 5739 5740 5742 5743 5744 5745 5747 5749 5750 5752 5753 5755 5756 5757 5758 5759 5759 5760 5760 5759 5758 5758 5756 5755 5753 5752 5750 5748 5746 5744 5742 5740 5737 5735 5732
5731 5732 5733 5734 5735 5736 5737 5738 5740 5741 5743 5745 5746 5748 5749 5750 5752 5752 5753 5754 5754 5754 5754 5753 5752 5751 5750 5748 5747 5745 5743 5741 5739 5737 5735 5732 5730 5728
5725 5726 5728 5729 5730 5731 5733 5734 5735 5736 5738 5740 5742 5743 5744 5745 5747 5748 5748 5749 5749 5749 5749 5748 5747 5747 5745 5744 5743 5741 5739 5737 5735 5732 5730 5728 5726 5723
5720 5722 5723 5725 5726 5727 5729 5730 5731 5732 5734 5735 5737 5738 5740 5741 5742 5743 5744 5745 5745 5745 5744 5744 5744 5743 5742 5740 5739 5737 5735 5733 5731 5729 5726 5724 5722 5719
5717 5718 5720 5721 5722 5724 5725 5727 5728 5729 5731 5732 5733 5735 5736 5737 5738 5739 5740 5741 5741 5741 5741 5741 5740 5740 5739 5737 5736 5734 5732 5730 5728 5725 5723 5721 5718 5716
5714 5715 5717 5718 5720 5721 5723 5724 5726 5727 5728 5730 5731 5732 5734 5735 5736 5737 5738 5738 5739 5739 5739 5738 5738 5737 5736 5735 5733 5731 5729 5727 5725 5723 5720 5718 5715 5712
5712 5713 5715 5716 5718 5720 5721 5723 5724 5726 5727 5728 5730 5731 5732 5733 5734 5735 5736 5736 5736 5737 5736 5736 5735 5735 5734 5732 5731 5729 5727 5725 5723 5720 5718 5715 5712 5709
5711 5712 5714 5716 5717 5719 5721 5722 5723 5725 5726 5728 5729 5730 5731 5732 5733 5734 5734 5735 5735 5735 5735 5734 5734 5733 5732 5730 5729 5727 5725 5723 5720 5718 5715 5712 5708 5705
5710 5712 5714 5715 5717 5719 5721 5722 5724 5725 5727 5728 5729 5730 5731 5732 5732 5733 5734 5734 5734 5734 5734 5733 5733 5732 5730 5729 5727 5725 5723 5721 5718 5715 5712 5708 5705 5701
5711 5712 5714 5716 5718 5719 5721 5723 5724 5726 5727 5728 5729 5730 5731 5732 5733 5733 5734 5734 5734 5734 5733 5733 5732 5731 5729 5727 5725 5723 5720 5718 5715 5712 5708 5705 5701 5697
5712 5713 5715 5717 5719 5721 5722 5724 5725 5727 5728 5729 5730 5731 5732 5733 5734 5734 5734 5734 5734 5734 5733 5732 5731 5729 5728 5726 5724 5721 5718 5715 5712 5708 5705 5701 5697 5693
5713 5714 5716 5718 5720 5722 5724 5725 5727 5728 5730 5731 5732 5733 5734 5734 5735 5735 5735 5735 5735 5734 5733 5732 5730 5728 5726 5724 5721 5718 5715 5712 5708 5705 5701 5697 5693 5688
5715 5717 5718 5720 5722 5724 5726 5727 5729 5730 5732 5733 5734 5735 5735 5736 5736 5736 5736 5735 5735 5734 5732 5731 5729 5727 5725 5722 5719 5716 5712 5708 5704 5700 5696 5692 5688 5683
5717 5719 5721 5723 5725 5727 5728 5730 5731 5733 5734 5735 5736 5737 5737 5737 5737 5737 5736 5736 5734 5733 5732 5730 5728 5725 5722 5719 5716 5713 5709 5704 5700 5695 5690 5686 5682 5677
5721 5723 5725 5726 5728 5730 5731 5733 5734 5736 5737 5737 5738 5738 5738 5738 5738 5737 5737 5736 5734 5733 5731 5728 5726 5723 5720 5716 5713 5709 5705 5701 5695 5690 5684 5679 5673 5669
5725 5727 5728 5730 5732 5733 5735 5736 5737 5738 5739 5739 5740 5740 5740 5739 5739 5738 5737 5735 5734 5732 5730 5727 5724 5720 5717 5713 5709 5705 5700 5696 5691 5686 5680 5672 5666 5660
Wind_Speed
29 29 29 30 31 32 31 31 31 31 31 30 31 31 31 31 32 32 32 33 33 33 33 34 34 35 36 37 38 38 38 38 39 39 39 39 39 38
29 28 28 29 30 30 30 30 30 31 31 31 30 30 31 31 31 31 32 33 33 34 34 33 34 34 35 36 37 37 37 37 37 37 37 37 36 36
27 27 27 28 28 28 29 30 30 30 31 31 30 31 30 30 29 30 32 33 33 32 32 33 32 33 34 35 35 35 35 35 35 35 36 35 35 35
25 26 26 27 27 28 29 29 30 30 30 30 30 30 30 30 30 30 31 32 32 31 30 30 31 32 32 32 32 32 33 33 33 34 34 34 34 33
25 26 26 26 26 27 27 27 28 28 29 29 29 29 29 29 29 28 28 29 29 29 29 30 30 30 30 30 30 31 31 31 32 32 32 31 31 31
25 25 25 25 25 26 27 27 27 27 27 28 27 28 28 27 27 28 28 28 28 27 28 29 29 29 28 28 29 30 30 30 29 29 28 28 28 28
24 24 24 24 25 25 25 25 26 26 25 25 25 25 26 27 27 27 27 27 27 27 27 26 25 25 26 27 27 27 27 27 26 26 26 26 26 26
23 22 22 21 22 22 22 22 23 23 24 24 25 24 24 24 24 25 25 24 25 25 24 24 24 24 24 24 24 24 24 24 24 24 23 24 24 23
20 19 18 18 18 18 19 19 19 20 21 22 22 21 21 21 21 21 21 21 21 21 20 21 21 21 21 21 21 21 21 22 22 22 21 21 21 21
19 18 17 17 17 16 17 17 18 18 19 19 19 19 19 19 19 19 19 18 18 18 18 18 18 18 18 18 18 19 19 19 19 19 19 19 19 20
17 17 17 16 16 15 15 15 15 15 15 16 17 16 16 16 17 16 15 15 15 14 14 14 15 15 15 15 16 16 17 17 16 17 17 18 18 19
15 14 14 13 13 13 13 12 12 12 12 12 12 12 13 13 12 11 11 11 11 11 11 11 12 12 12 13 14 14 14 15 15 15 16 17 17 18
12 12 11 11 10 10 10 9 9 9 9 9 9 9 9 8 8 8 8 8 8 8 8 9 9 10 11 11 11 12 12 13 14 14 15 16 17 17
9 9 9 9 8 7 7 7 7 7 6 6 5 5 5 5 5 5 5 5 5 5 6 7 8 8 9 10 10 11 11 12 13 14 15 16 17 18
6 6 6 7 7 7 7 6 5 4 4 4 4 3 3 3 2 2 2 2 3 4 5 5 6 7 8 9 9 11 12 13 14 15 16 17 18 19
5 6 6 5 6 6 6 6 5 5 5 4 3 3 2 2 2 1 0 1 2 3 3 4 5 6 8 9 10 11 13 14 15 16 18 19 20 21
6 6 7 7 7 8 8 7 7 6 5 5 4 4 4 4 4 3 3 2 3 3 4 5 6 7 8 10 11 13 14 15 17 18 19 20 21 22
8 8 9 9 9 9 9 8 8 8 7 7 7 7 6 6 5 5 5 4 4 5 5 6 7 9 10 12 13 14 15 17 18 19 20 21 22 24
10 10 11 11 11 10 10 10 9 9 9 9 9 8 8 7 6 6 5 5 5 5 6 7 9 10 11 13 15 17 18 19 20 21 22 23 24 25
11 12 12 12 12 12 12 12 11 11 11 10 10 9 8 7 6 6 5 5 6 7 8 9 11 12 13 15 16 18 19 21 22 23 24 25 26 28
13 13 13 13 13 13 13 13 13 12 11 10 9 9 8 7 6 6 6 7 7 9 10 12 13 15 16 17 18 19 21 23 25 27 28 28 29 30
15 15 15 15 15 15 14 14 13 12 11 10 9 8 7 7 6 7 7 8 9 11 12 13 15 17 18 19 20 22 23 25 27 29 31 32 33 33
16 16 17 17 16 15 15 14 13 12 11 10 9 8 8 7 8 8 8 9 11 12 14 15 17 18 20 21 23 24 25 27 28 30 32 35 37 38
Wind_Direction
266 265 262 259 258 258 258 257 255 255 256 257 257 256 259 258 257 258 260 263 265 267 269 270 271 271 274 277 278 281 283 283 284 285 285 286 286 287
266 263 260 259 259 258 257 256 255 256 256 257 258 258 260 258 258 260 262 264 265 267 269 270 271 272 274 277 278 281 283 285 286 286 286 287 288 289
264 262 260 260 258 258 256 255 255 256 256 257 258 258 259 259 261 263 263 263 265 268 268 270 270 273 276 278 281 282 284 286 286 286 288 288 289 291
262 262 261 261 258 256 256 254 255 255 255 256 257 258 258 259 260 262 263 263 265 267 269 271 273 275 278 281 282 284 286 287 288 288 289 290 292 294
262 262 263 263 259 256 255 255 254 253 253 255 257 257 258 259 260 260 261 263 264 266 269 272 274 275 279 282 284 286 288 290 292 292 293 294 295 297
263 263 263 261 259 257 256 256 255 254 253 255 256 257 257 257 259 259 259 262 265 267 271 274 276 278 281 286 287 288 291 293 294 295 297 298 300 301
264 263 262 261 260 258 256 256 255 254 253 255 257 258 258 257 257 258 260 264 266 268 273 276 279 283 286 288 289 292 294 295 297 299 301 302 302 303
264 262 261 260 260 258 257 256 255 254 252 253 255 256 257 257 256 258 261 265 266 269 274 278 283 287 290 292 293 295 296 298 301 303 305 305 306 307
258 256 256 258 259 257 257 256 255 253 251 251 254 255 256 256 258 261 263 266 271 274 278 281 284 287 291 293 296 298 300 303 306 307 308 309 310 310
257 256 255 256 256 256 255 253 252 253 251 250 250 253 256 257 261 263 266 271 275 278 280 282 286 290 294 296 300 304 307 309 311 312 312 311 312 312
254 253 252 252 251 251 251 250 249 248 248 248 249 251 253 256 260 263 267 274 277 280 283 288 292 295 298 304 308 311 313 315 316 316 317 316 316 316
249 247 248 250 249 246 245 247 248 243 243 242 246 249 253 254 257 260 266 273 278 284 289 293 296 302 308 314 318 320 321 322 322 322 323 322 320 319
244 243 245 244 242 239 241 245 248 249 249 246 247 249 254 255 258 263 270 276 281 287 291 298 305 312 317 321 324 326 327 328 329 328 327 325 323 322
236 235 231 225 220 223 233 241 242 239 239 241 241 242 245 249 252 260 268 275 283 293 301 311 316 320 324 327 330 331 331 331 331 330 329 327 325 324
213 214 217 216 211 210 210 213 217 214 208 209 207 214 221 231 238 249 265 279 299 313 318 321 325 329 332 334 335 335 333 332 331 329 327 325 324 322
189 193 191 188 185 180 183 184 183 177 171 173 179 179 169 151 142 134 63 28 3 349 347 347 346 344 341 339 337 336 334 332 329 328 327 325 324 322
155 158 158 157 154 154 153 154 154 152 149 145 138 129 124 120 117 108 92 72 47 28 15 5 357 350 345 341 338 335 333 332 330 329 328 326 324 323
143 142 141 141 140 140 139 137 133 130 128 126 123 121 119 114 106 96 83 67 50 33 18 6 358 351 346 342 339 336 335 334 332 330 329 327 325 323
134 134 134 135 135 134 134 131 128 126 123 120 117 112 106 99 92 82 68 52 35 20 9 1 355 350 346 341 337 335 334 332 330 328 327 326 324 322
132 132 130 129 129 128 128 126 123 120 117 112 107 101 95 88 80 68 52 36 22 11 3 357 351 346 342 339 337 334 332 331 329 327 326 325 324 322
127 127 125 126 126 125 121 117 115 112 109 105 100 95 88 79 68 57 43 30 17 7 358 352 347 344 341 338 337 335 333 331 330 328 326 324 323 322
121 122 123 123 121 119 116 114 111 108 104 100 94 88 81 71 59 46 33 20 10 2 355 349 345 342 340 338 337 335 332 331 330 329 327 325 324 323
119 118 119 118 117 115 113 110 107 104 101 95 88 80 70 58 46 35 23 12 3 356 351 347 344 342 340 337 336 334 332 331 330 329 327 325 324 324